User: anonymous   Login
Location: Unspecified
(0.0000°N, 0.0000°E)
Time: 00:39:31
(UTC+00:00)
Language:

GRACE-FO 2 - Orbit

View from above orbital plane
View from above orbital plane
View from above satellite
View from above satellite

Ground track
Ground track

The orbit data is extracted from the following two-line orbital elements,

1 43477U 18047B   19258.66328690 -.00000274  00000-0 -11295-4 0    00
2 43477  89.0039 174.8222 0015042 232.1356 213.8298 15.23908541 73221
Epoch (UTC): 15 September 2019 15:55:07
Eccentricity: 0.0015042
inclination: 89.0039°
perigee height: 484 km
apogee height: 504 km
right ascension of ascending node: 174.8222°
argument of perigee: 232.1356°
revolutions per day: 15.23908541
mean anomaly at epoch: 213.8298°
orbit number at epoch: 7322

The dashed part of the orbit path shows where the satellite is in the earth's shadow,  

DLR